Malahat, British Columbia

12:10 PM PDT on August 21, 2017 (GMT -0700)
Malahat

Weather History for CWKH - October, 2012

Change the Weather History Date:

Friday, October 19, 2012

  Actual Average Record
Temperature  
Mean Temperature 48 °F -  
Max Temperature 54 °F - - ()
Min Temperature 41 °F - - ()
Degree Days  
Heating Degree Days 18    
Moisture  
Dew Point 42 °F    
Average Humidity 79    
Maximum Humidity 97    
Minimum Humidity 56    
Precipitation  
Precipitation 0.00 in - - ()
Sea Level Pressure  
Sea Level Pressure 29.69 in    
Wind  
Wind Speed - ()    
Max Wind Speed -    
Max Gust Speed -    
T = Trace of Precipitation, MM = Missing Value Source: Averaged Metar Reports

Daily Weather History Graph

Daily Weather History Graph

Search for Another Location

Airport or City:

Trip Planner

Search our weather history database for the weather conditions in past years. The results will help you decide how hot, cold, wet, or windy it might be!

Date:

Astronomy

Oct. 19, 2012 Rise Set
Actual Time 7:41 AM PDT 6:16 PM PDT
Civil Twilight 7:09 AM PDT 6:48 PM PDT
Nautical Twilight 6:32 AM PDT 7:24 PM PDT
Astronomical Twilight 5:56 AM PDT 8:00 PM PDT
Moon 12:46 PM PDT (10/19) 9:44 PM PDT (10/19)
Length of Visible Light 11h 38m
Length of Day
10h 34m
Waxing Crescent, 24% of the Moon is Illuminated
Oct 19
Waxing Crescent
Oct 21
First Quarter
Oct 29
Full
Nov 6
Last Quarter
Nov 13
New

Hourly Weather History & Observations

Time (PDT) Temp. Dew Point Humidity Pressure Visibility Wind Dir Wind Speed Gust Speed Precip Events Conditions
12:00 AM 45.1 °F 44.2 °F 97% 29.66 in - North - - N/A   Unknown
1:00 AM 48.2 °F 47.3 °F 97% 29.64 in - North - - N/A   Unknown
2:00 AM 53.6 °F 52.7 °F 97% 29.60 in - North - - N/A   Unknown
3:00 AM 54.9 °F 52.2 °F 91% 29.60 in - North - - N/A   Unknown
4:00 AM 54.3 °F 52.2 °F 92% 29.61 in - North - - N/A   Unknown
5:00 AM 53 °F 50 °F 85% 29.65 in - Calm Calm - -  
5:00 AM 52.5 °F 49.8 °F 91% 29.65 in - North - - N/A   Unknown
6:00 AM 50.0 °F 45.9 °F 86% 29.68 in - North - - N/A   Unknown
7:00 AM 50.0 °F 44.8 °F 82% 29.68 in - North - - N/A   Unknown
8:00 AM 48.6 °F 44.4 °F 86% 29.70 in - North - - N/A   Unknown
10:00 AM 48.0 °F 41.0 °F 77% 29.73 in - North - - N/A   Unknown
11:00 AM 48 °F 40 °F 65% 29.74 in - Calm Calm - -  
11:00 AM 47.8 °F 39.9 °F 74% 29.74 in - North - - N/A   Unknown
12:00 PM 48.7 °F 39.4 °F 70% 29.74 in - North - - N/A   Unknown
1:00 PM 49.1 °F 39.6 °F 70% 29.74 in - North - - N/A   Unknown
2:00 PM 49.3 °F 39.0 °F 68% 29.74 in - North - - N/A   Unknown
3:00 PM 51.3 °F 37.4 °F 59% 29.72 in - North - - N/A   Unknown
4:00 PM 50.4 °F 37.9 °F 62% 29.73 in - North - - N/A   Unknown
5:00 PM 48 °F 37 °F 56% 29.72 in - Calm Calm - -  
5:00 PM 48.4 °F 37.0 °F 65% 29.72 in - North - - N/A   Unknown
6:00 PM 44.6 °F 36.7 °F 74% 29.71 in - North - - N/A   Unknown
7:00 PM 44.1 °F 36.7 °F 75% 29.70 in - North - - N/A   Unknown
8:00 PM 44.1 °F 36.3 °F 74% 29.69 in - North - - N/A   Unknown
9:00 PM 41.7 °F 36.9 °F 83% 29.69 in - North - - N/A   Unknown
10:00 PM 41.2 °F 36.9 °F 85% 29.69 in - North - - N/A   Unknown
11:00 PM 42 °F 37 °F 78% 29.68 in - Calm Calm - -  
11:00 PM 41.7 °F 37.4 °F 85% 29.68 in - North - - N/A   Unknown